カタログに戻る

SL-8 R/B

運用中PO
NORAD 36520·ROCKET BODY·🇷🇺 Russia

打ち上げ Apr 27, 2010 から Plesetsk Cosmodrome

Loading…

次のパス (今後24時間)

TLE

最新Source: Space-Track

元期: Sep 14, 2026, 04:44 UTC

1 36520U 10017B   26257.19740141  .00000049  00000-0  36869-4 0  9993
2 36520  82.9638 174.1414 0025123 216.8526 298.0665 13.73082220820812

AllMySatでSL-8 R/Bをリアルタイム追跡

Download on the App Store